Weather History for McAlester, OK

Change the Weather History Date:

Thursday, October 27, 2011

  Actual Average Record
Temperature  
Mean Temperature 50 °F -  
Max Temperature 55 °F 71 °F 88 °F (1963)
Min Temperature 46 °F 47 °F 28 °F (1957)
Degree Days  
Heating Degree Days 14    
Moisture  
Dew Point 46 °F    
Average Humidity 89    
Maximum Humidity 93    
Minimum Humidity 64    
Precipitation  
Precipitation 1.02 in - - ()
Sea Level Pressure  
Sea Level Pressure 30.06 in    
Wind  
Wind Speed 12 mph (NNE)    
Max Wind Speed 17 mph    
Max Gust Speed 26 mph    
Visibility 7 miles    
Events Rain    
Averages and records for this station are not official NWS values.
T = Trace of Precipitation, MM = Missing Value Source: NWS Daily Summary

Daily Weather History Graph

Daily Weather History Graph

Search for Another Location

Airport:

Trip Planner

Search our weather history database for the weather conditions in past years. The results will help you decide how hot, cold, wet, or windy it might be!

Date:

Astronomy

Oct. 27, 2011 Rise Set
Actual Time 7:39 AM CDT 6:34 PM CDT
Civil Twilight 7:13 AM CDT 7:00 PM CDT
Nautical Twilight 6:43 AM CDT 7:29 PM CDT
Astronomical Twilight 6:14 AM CDT 7:59 PM CDT
Moon 8:38 AM CDT (10/27) 7:09 PM CDT (10/27)
Length of Visible Light 11h 47m
Length of Day
10h 55m
New Moon, 1% of the Moon is Illuminated
Oct 27
New Moon
Nov 2
First Quarter
Nov 10
Full
Nov 18
Last Quarter
Nov 25
New

Hourly Weather History & Observations

Time (CDT) Temp. Windchill Dew Point Humidity Pressure Visibility Wind Dir Wind Speed Gust Speed Precip Events Conditions
12:53 AM 54.0 °F - 46.0 °F 75% 29.96 in 10.0 mi North 13.8 mph - N/A   Overcast
1:53 AM 54.0 °F - 45.0 °F 72% 29.95 in 10.0 mi NNE 11.5 mph 23.0 mph N/A   Mostly Cloudy
2:53 AM 55.0 °F - 43.0 °F 64% 29.95 in 10.0 mi NNE 16.1 mph 26.5 mph N/A   Overcast
3:53 AM 54.0 °F - 44.1 °F 69% 29.94 in 10.0 mi North 16.1 mph 21.9 mph N/A   Overcast
4:53 AM 52.0 °F - 45.0 °F 77% 30.00 in 10.0 mi North 15.0 mph 23.0 mph 0.00 in Rain Light Rain
5:35 AM 50.0 °F - 44.6 °F 82% 30.00 in 5.0 mi NNE 16.1 mph 26.5 mph 0.05 in Rain Rain
5:53 AM 48.2 °F - 44.6 °F 87% 30.03 in 7.0 mi NNE 17.3 mph 24.2 mph N/A Rain Rain
6:41 AM 48.2 °F - 46.4 °F 93% 30.04 in 10.0 mi North 15.0 mph - 0.08 in   Overcast
6:53 AM 48.9 °F - 46.0 °F 90% 30.08 in 10.0 mi NNW 11.5 mph - 0.08 in Rain Light Rain
7:38 AM 46.4 °F 41.1 °F 44.6 °F 93% 30.04 in 7.0 mi NNE 11.5 mph 18.4 mph 0.07 in Rain Light Rain
7:53 AM 46.9 °F - 45.0 °F 93% 30.07 in 3.0 mi North 9.2 mph 18.4 mph 0.13 in Rain Heavy Rain
8:02 AM 46.4 °F 41.5 °F 44.6 °F 93% 30.08 in 4.0 mi North 10.4 mph - 0.03 in Rain Heavy Rain
8:53 AM 48.0 °F - 46.0 °F 93% 30.04 in 10.0 mi NNE 6.9 mph 17.3 mph 0.06 in Rain Light Rain
9:53 AM 48.0 °F - 46.0 °F 93% 30.04 in 4.0 mi NNE 16.1 mph 24.2 mph 0.06 in Rain Rain
10:16 AM 48.2 °F - 46.4 °F 93% 30.07 in 7.0 mi NNE 12.7 mph 19.6 mph 0.01 in Rain Light Rain
10:31 AM 48.2 °F - 46.4 °F 93% 30.11 in 4.0 mi North 11.5 mph 19.6 mph 0.04 in Rain Rain
10:38 AM 48.2 °F - 46.4 °F 93% 30.08 in 2.5 mi NNE 11.5 mph - 0.06 in Rain Rain
10:42 AM 48.2 °F - 46.4 °F 93% 30.10 in 2.5 mi North 10.4 mph - 0.08 in Rain Rain
10:53 AM 48.0 °F - 46.0 °F 93% 30.09 in 3.0 mi North 13.8 mph - 0.11 in Rain Rain
11:53 AM 48.0 °F - 46.0 °F 93% 30.09 in 5.0 mi North 12.7 mph - 0.08 in Rain Light Rain
12:53 PM 48.0 °F - 46.0 °F 93% 30.06 in 10.0 mi NE 9.2 mph 16.1 mph 0.03 in   Overcast
1:26 PM 48.2 °F - 46.4 °F 93% 30.05 in 10.0 mi NE 9.2 mph 19.6 mph 0.00 in Rain Light Rain
1:53 PM 48.2 °F - 46.4 °F 93% 30.04 in 10.0 mi NE 9.2 mph 17.3 mph N/A Rain Light Rain
2:04 PM 48.2 °F - 46.4 °F 93% 30.04 in 7.0 mi NNE 8.1 mph - N/A Rain Light Rain
2:14 PM 48.2 °F - 46.4 °F 93% 30.05 in 7.0 mi NNE 8.1 mph - 0.02 in Rain Light Rain
2:24 PM 48.2 °F - 46.4 °F 93% 30.03 in 10.0 mi NNE 9.2 mph 17.3 mph 0.02 in Rain Light Rain
2:34 PM 48.2 °F - 46.4 °F 93% 30.02 in 10.0 mi NE 12.7 mph 24.2 mph 0.02 in Rain Light Rain
2:53 PM 48.9 °F - 46.0 °F 90% 30.02 in 10.0 mi NNE 9.2 mph 17.3 mph 0.02 in Rain Light Rain
3:04 PM 48.2 °F - 46.4 °F 93% 30.03 in 10.0 mi NNE 11.5 mph 17.3 mph N/A Rain Light Rain
3:53 PM 50.0 °F - 45.0 °F 83% 30.04 in 10.0 mi NNE 10.4 mph 18.4 mph 0.00 in   Overcast
4:53 PM 48.9 °F - 46.0 °F 90% 30.05 in 6.0 mi NNE 9.2 mph - 0.02 in Rain Light Rain
5:53 PM 48.2 °F - 46.4 °F 93% 30.07 in 5.0 mi NNE 15.0 mph - N/A Rain Light Rain
6:00 PM 48.2 °F - 44.6 °F 87% 30.07 in 6.0 mi NNE 12.7 mph - 0.00 in Rain Light Rain
6:19 PM 48.2 °F - 46.4 °F 93% 30.08 in 3.0 mi NNE 6.9 mph - 0.04 in Rain Rain
6:27 PM 48.2 °F - 46.4 °F 93% 30.08 in 4.0 mi NNE 8.1 mph - 0.06 in Rain Rain
6:41 PM 48.2 °F - 46.4 °F 93% 30.09 in 6.0 mi NNE 8.1 mph - 0.08 in Rain Light Rain
6:53 PM 48.0 °F - 46.0 °F 93% 30.09 in 7.0 mi North 9.2 mph - 0.09 in Rain Light Rain
6:59 PM 48.2 °F - 46.4 °F 93% 30.10 in 6.0 mi North 6.9 mph - 0.01 in Rain Light Rain
7:07 PM 48.2 °F - 46.4 °F 93% 30.10 in 7.0 mi North 8.1 mph - 0.02 in Rain Light Rain
7:53 PM 48.0 °F - 46.0 °F 93% 30.12 in 5.0 mi NNE 8.1 mph - 0.12 in Rain Rain
8:49 PM 48.2 °F - 46.4 °F 93% 30.14 in 5.0 mi NNE 6.9 mph - 0.16 in Rain Rain
8:53 PM 48.0 °F - 46.0 °F 93% 30.14 in 6.0 mi NNE 6.9 mph - 0.17 in Rain Light Rain
9:53 PM 46.9 °F - 44.1 °F 90% 30.13 in 10.0 mi NNE 10.4 mph - 0.05 in Rain Light Rain
10:53 PM 46.9 °F - 42.1 °F 83% 30.14 in 10.0 mi NNE 10.4 mph - 0.00 in   Mostly Cloudy
11:53 PM 46.9 °F - 42.1 °F 83% 30.17 in 10.0 mi Variable 3.5 mph - 0.00 in Rain Light Rain